Location: New Greens
(51.7702°N, 0.3379°W)
Time: 09:12:04
(UTC+00:00)

Envisat - Pass Details

Date: 25 January 2019
Orbit: 764 x 766 km, 98.2° (Epoch: 16 February)

Event Time Altitude Azimuth Distance (km) Brightness Sun altitude
Rises 19:57:39 0° 208° (SSW) 3,224 6.5 -30.7°
Reaches altitude 10° 20:00:36 10° 226° (SW) 2,303 5.9 -31.2°
Maximum altitude 20:04:10 19° 272° (W) 1,763 5.5 -31.7°
Drops below altitude 10° 20:07:46 10° 317° (NW) 2,314 6.1 -32.3°
Sets 20:10:46 0° 335° (NNW) 3,246 6.7 -32.7°
